ATLAS 5 CENTAUR DEB, 46637

Orbit data source: Space-Track

ATLAS 5 CENTAUR DEB, 46637 is space debris in HEO originally from a launch on Wed, 17 Sep 2014 UTC launched from the Air Force Eastern Test Range (AFETR). Debris objects in space refer to the collection of defunct objects orbiting the Earth. Examples of debris include non-operational satellites, rocket bodies, and fragments generated from explosions, collisions, or faulty payload assembly.

Loading next visibility...
Identifier
46637, 2014-055CM
Orbit
HEO
Country
Flag of USUS
Related business
Flag of USUnited Launch Alliance/Lockheed Martin (US)
Manufacturer
Unknown
Mission
Spacecraft
Bus & Motor
Unknown
Mass
Unknown
Launch date (UTC)
2014-09-17 (12 years ago)
Launch vehicle
Unknown
Launch site
Air Force Eastern Test Range (AFETR)
Object type
Payload
Rocket body
Debris
Shape & HBR
Unknown shape, 1.1 m
Radar Cross Section
Medium (>0.1 m² and <1 m²)

Expand to show TLE details & history
Last TLE update: 3 weeks ago

TLE from 3 weeks ago
0 ATLAS 5 CENTAUR DEB
1 46637U 14055CM  26217.79687447  .00000063  00000-0  00000-0 0  9990
2 46637  21.2621  80.7622 5093958 278.0892  29.4124  1.94665378 41446
Epoch: 2026-08-05T19:07Z
TLE epoch observation values (Epoch: 2026-08-05T19:07:29.954Z)
Latitude
0.00006°
Longitude
-160.40012°
Altitude
12,367.438 km
Speed
5.274 km/s
True Right ascension
05h 23m 16s
True Declination
0° 00' 00"
Sunlit
Object was in daylight at epoch
Visualization orbit readout
Latitude
Unknown
Longitude
Unknown
Altitude
Unknown
Speed
Unknown
Apparent Right ascension
Unknown
Apparent Declination
Unknown
Sunlit
N/A
Visualization observer readout
Local Sidereal Time
09:18:53
Azimuth
Unknown
Elevation
Unknown
Doppler factor
Unknown
Orbital elements
Apogee altitude
34,520.822 km
Perigee altitude
6,915.395 km
Semi-major axis
27,096.246 km
Eccentricity
0.5094
Inclination
21.2621°
RAAN
80.7622°
Arg. of periapsis
278.0892°
True anomaly
81.84066°
Mean anomaly
29.4124°
Eccentric anomaly
52.59764°
Mean motion
0.48661 °/min
Orbital period
739.81 mins
BSTAR
0
Loading maneuver chart data...
Computing Atmospheric mass density...

Documentation

Showing up to 5 results
|